Location: Lecco
(45.8566°N, 9.3977°E)
Time: 06:38:36
(UTC+02:00)

ISS - Pass Details

Date: 13 July 2018
Orbit: 402 x 408 km, 51.6° (Epoch: 18 July)

Event Time Altitude Azimuth Distance (km) Brightness Sun altitude
Exits shadow 01:58:10 29° 75° (ENE) 779 -2.2 -21.9°
Drops below altitude 10° 01:59:57 10° 66° (ENE) 1,470 -0.6 -21.9°
Sets 02:02:03 0° 63° (ENE) 2,334 0.5 -21.8°
